Temp
-6 -7 -7 -7 -8 -8 -8 -9 -8 -8 -7 -7 -7 -8 -8 -7 -7 -7 -7 -7 -6 -6 -7 -6 -7 -6 -6 -6 -7 -7 -6 -7 -7 -7 -6 -7 -7 -6 -7 -7 -7 -7 -7 -7
-6 -6 -6 -7 -7 -8 -9 -9 -9 -8 -7 -7 -7 -7 -8 -8 -8 -7 -7 -8 -6 -7 -6 -6 -6 -6 -6 -6 -7 -7 -7 -7 -7 -7 -7 -7 -7 -7 -7 -7 -7 -6 -7 -7
-7 -6 -7 -7 -7 -8 -9 -10 -9 -8 -8 -8 -8 -8 -7 -8 -8 -8 -8 -7 -6 -6 -6 -6 -5 -6 -6 -7 -7 -7 -7 -7 -7 -7 -7 -7 -6 -6 -7 -7 -6 -7 -7 -7
-7 -7 -7 -7 -8 -8 -10 -9 -9 -9 -8 -8 -8 -8 -8 -8 -8 -7 -8 -7 -6 -6 -6 -6 -6 -6 -6 -6 -7 -7 -7 -7 -7 -7 -7 -7 -7 -7 -7 -7 -7 -7 -7 -7
-7 -7 -7 -7 -9 -9 -10 -10 -9 -9 -9 -9 -8 -8 -8 -8 -8 -7 -7 -7 -6 -5 -6 -7 -7 -6 -6 -6 -6 -7 -7 -7 -7 -7 -7 -7 -7 -7 -7 -7 -7 -7 -7 -7
-7 -7 -7 -8 -9 -9 -10 -9 -10 -9 -9 -9 -9 -8 -9 -9 -8 -8 -7 -7 -6 -6 -7 -7 -7 -7 -6 -6 -7 -6 -7 -7 -7 -7 -8 -8 -8 -8 -8 -7 -7 -7 -7 -7
-7 -7 -8 -9 -9 -9 -10 -11 -11 -10 -9 -10 -10 -9 -10 -9 -9 -8 -8 -8 -7 -6 -7 -7 -7 -7 -7 -7 -7 -6 -6 -7 -7 -7 -8 -7 -7 -7 -7 -7 -7 -7 -7 -7
-8 -7 -8 -9 -9 -10 -10 -11 -11 -10 -10 -10 -10 -10 -10 -9 -9 -8 -7 -7 -7 -7 -7 -7 -7 -7 -7 -7 -8 -7 -7 -7 -7 -7 -7 -7 -7 -8 -8 -8 -7 -7 -7 -7
-8 -8 -8 -9 -10 -11 -11 -11 -11 -10 -10 -10 -10 -9 -9 -9 -8 -8 -8 -8 -8 -8 -7 -7 -7 -7 -7 -7 -7 -7 -7 -7 -7 -7 -7 -7 -7 -7 -8 -8 -8 -8 -7 -7
-8 -8 -8 -9 -10 -10 -10 -11 -11 -10 -10 -10 -10 -10 -10 -9 -9 -8 -8 -7 -7 -7 -7 -7 -7 -7 -6 -7 -7 -7 -7 -7 -7 -7 -7 -7 -7 -8 -8 -8 -8 -7 -7 -7
-9 -8 -9 -9 -10 -10 -10 -10 -11 -10 -11 -11 -10 -10 -10 -9 -9 -9 -8 -8 -7 -7 -7 -8 -7 -7 -6 -7 -7 -7 -8 -8 -8 -7 -7 -7 -7 -8 -8 -7 -8 -7 -7 -7
-9 -9 -9 -10 -11 -11 -11 -10 -10 -11 -11 -11 -10 -10 -10 -10 -9 -9 -8 -8 -7 -8 -8 -8 -7 -7 -7 -7 -7 -8 -8 -8 -8 -7 -7 -7 -7 -7 -8 -7 -7 -7 -7 -7
-10 -10 -10 -10 -11 -10 -10 -10 -10 -11 -11 -11 -11 -9 -10 -10 -10 -9 -9 -8 -7 -7 -8 -8 -7 -7 -7 -8 -7 -7 -7 -8 -8 -8 -7 -7 -7 -7 -7 -7 -7 -7 -7 -7
-10 -10 -10 -10 -10 -10 -11 -11 -11 -11 -11 -11 -11 -10 -10 -10 -10 -9 -9 -9 -8 -8 -8 -7 -7 -7 -7 -7 -7 -7 -8 -8 -8 -8 -8 -8 -8 -8 -8 -8 -7 -7 -7 -7
-12 -11 -11 -10 -11 -11 -11 -11 -11 -11 -11 -11 -11 -10 -10 -10 -9 -9 -9 -9 -9 -8 -8 -7 -8 -7 -7 -7 -7 -8 -8 -8 -8 -8 -7 -7 -7 -7 -7 -8 -7 -7 -7 -6
-11 -11 -11 -11 -11 -11 -11 -11 -11 -11 -11 -11 -11 -10 -10 -9 -9 -9 -9 -9 -9 -9 -9 -8 -8 -8 -8 -7 -8 -8 -8 -8 -7 -7 -7 -7 -7 -7 -7 -8 -7 -7 -7 -7
-12 -11 -11 -11 -11 -11 -11 -11 -11 -11 -10 -10 -10 -10 -10 -10 -10 -9 -9 -9 -9 -8 -8 -8 -8 -8 -8 -8 -8 -8 -7 -8 -8 -7 -7 -7 -7 -7 -7 -7 -7 -7 -7 -7
-12 -12 -12 -11 -11 -11 -11 -11 -11 -11 -10 -10 -10 -10 -10 -10 -10 -10 -10 -9 -8 -8 -7 -8 -8 -8 -8 -8 -8 -7 -7 -7 -7 -7 -7 -7 -7 -7 -7 -7 -7 -7 -7 -7
-12 -13 -12 -12 -11 -12 -11 -10 -11 -11 -10 -10 -10 -10 -10 -10 -10 -10 -10 -9 -9 -8 -8 -8 -8 -8 -7 -7 -7 -7 -7 -7 -7 -7 -7 -7 -7 -7 -7 -7 -7 -6 -7 -7
-12 -13 -13 -12 -11 -10 -10 -11 -11 -11 -11 -11 -10 -10 -10 -10 -10 -10 -10 -10 -9 -9 -8 -8 -8 -8 -7 -7 -7 -7 -7 -7 -7 -7 -7 -7 -7 -7 -7 -7 -7 -7 -7 -7
-13 -12 -12 -11 -11 -11 -10 -11 -11 -11 -11 -11 -11 -10 -10 -10 -11 -11 -10 -10 -9 -9 -9 -8 -8 -8 -8 -7 -7 -7 -7 -7 -7 -7 -7 -7 -7 -7 -7 -7 -7 -7 -7 -7
-13 -13 -12 -12 -12 -11 -11 -11 -11 -11 -11 -12 -11 -10 -10 -11 -11 -10 -10 -10 -9 -9 -9 -9 -8 -8 -8 -8 -8 -7 -7 -7 -7 -7 -7 -7 -7 -7 -7 -7 -7 -7 -7 -7
-13 -13 -12 -12 -12 -12 -12 -11 -11 -12 -11 -11 -12 -11 -10 -10 -11 -10 -10 -10 -9 -9 -9 -9 -9 -8 -8 -8 -8 -8 -8 -8 -7 -7 -7 -7 -7 -7 -7 -7 -7 -7 -7 -7
-13 -13 -13 -13 -12 -13 -12 -12 -11 -11 -11 -11 -11 -11 -11 -10 -10 -10 -10 -10 -9 -9 -9 -9 -9 -9 -9 -9 -8 -8 -8 -8 -8 -8 -7 -7 -8 -8 -8 -8 -8 -8 -8 -7
-13 -13 -13 -13 -13 -13 -12 -12 -10 -11 -11 -11 -11 -11 -11 -11 -10 -11 -11 -10 -10 -10 -10 -10 -10 -10 -9 -9 -9 -9 -8 -8 -8 -8 -8 -8 -8 -8 -8 -8 -8 -8 -8 -8
-14 -14 -13 -13 -13 -13 -12 -12 -11 -11 -11 -11 -11 -12 -12 -11 -11 -11 -11 -11 -10 -10 -10 -10 -10 -10 -10 -9 -9 -9 -9 -9 -9 -9 -9 -9 -9 -8 -9 -9 -8 -8 -8 -8
Height
5881 5880 5880 5879 5880 5881 5881 5882 5882 5882 5881 5880 5881 5880 5877 5875 5876 5877 5878 5879 5878 5879 5882 5882 5883 5884 5885 5888 5887 5886 5887 5889 5890 5892 5893 5895 5896 5899 5902 5905 5907 5910 5913 5914
5880 5878 5877 5877 5878 5879 5879 5880 5880 5880 5879 5879 5879 5879 5878 5877 5876 5876 5876 5877 5878 5879 5880 5881 5882 5883 5883 5886 5887 5886 5886 5888 5891 5892 5895 5896 5898 5900 5902 5905 5907 5910 5912 5914
5876 5877 5876 5875 5876 5876 5877 5878 5878 5879 5879 5878 5878 5879 5878 5877 5877 5876 5876 5875 5876 5877 5879 5880 5880 5883 5883 5884 5885 5885 5886 5887 5890 5893 5895 5896 5898 5901 5903 5906 5907 5908 5910 5913
5872 5873 5873 5873 5873 5875 5875 5874 5876 5877 5878 5879 5879 5879 5878 5877 5878 5877 5875 5875 5875 5877 5878 5879 5879 5880 5882 5883 5885 5885 5886 5887 5889 5892 5895 5896 5897 5899 5902 5904 5905 5908 5910 5912
5869 5869 5869 5870 5871 5872 5872 5873 5874 5875 5876 5876 5875 5878 5876 5876 5877 5876 5875 5875 5876 5875 5877 5877 5876 5878 5880 5881 5883 5884 5886 5887 5888 5889 5892 5894 5896 5899 5902 5904 5904 5906 5908 5911
5865 5865 5866 5867 5866 5868 5869 5871 5871 5872 5874 5875 5873 5875 5873 5874 5875 5874 5874 5873 5873 5873 5874 5875 5874 5876 5878 5880 5881 5883 5885 5887 5888 5889 5890 5892 5894 5897 5899 5902 5905 5905 5906 5910
5860 5862 5862 5862 5863 5866 5867 5868 5869 5871 5872 5873 5872 5872 5871 5871 5871 5871 5872 5872 5871 5871 5871 5872 5873 5875 5876 5878 5879 5880 5884 5886 5887 5888 5889 5890 5892 5894 5897 5900 5903 5905 5905 5908
5856 5858 5859 5860 5861 5864 5864 5866 5867 5868 5869 5870 5870 5870 5869 5868 5868 5869 5871 5869 5868 5868 5868 5870 5871 5873 5873 5874 5878 5880 5882 5883 5885 5886 5887 5889 5890 5893 5895 5898 5901 5903 5905 5907
5851 5853 5854 5856 5857 5860 5861 5862 5865 5865 5867 5867 5869 5869 5867 5867 5867 5867 5867 5867 5865 5863 5864 5866 5868 5870 5871 5871 5875 5878 5880 5882 5883 5884 5886 5887 5889 5892 5894 5895 5899 5901 5903 5905
5846 5847 5849 5850 5852 5854 5856 5860 5861 5862 5864 5865 5866 5866 5865 5865 5865 5865 5864 5864 5863 5861 5860 5863 5866 5868 5869 5870 5873 5876 5878 5880 5881 5884 5885 5887 5888 5890 5892 5894 5897 5899 5902 5904
5842 5842 5845 5847 5848 5852 5854 5855 5857 5859 5861 5863 5864 5866 5864 5863 5863 5863 5862 5861 5859 5856 5856 5859 5863 5865 5866 5868 5871 5872 5875 5877 5879 5881 5883 5884 5886 5888 5890 5892 5894 5897 5900 5902
5837 5838 5839 5843 5845 5847 5849 5851 5853 5856 5859 5860 5861 5864 5863 5863 5862 5861 5861 5859 5858 5857 5857 5860 5861 5862 5863 5864 5863 5868 5869 5873 5876 5878 5880 5882 5884 5885 5887 5888 5890 5892 5895 5898
5832 5833 5836 5838 5840 5842 5845 5848 5850 5852 5854 5856 5858 5862 5861 5862 5862 5861 5860 5859 5858 5857 5858 5859 5859 5859 5861 5863 5864 5864 5867 5870 5873 5875 5877 5878 5879 5881 5882 5884 5886 5888 5890 5892
5824 5827 5830 5834 5838 5841 5842 5844 5846 5849 5851 5854 5854 5857 5858 5860 5861 5860 5859 5859 5859 5858 5858 5858 5858 5860 5861 5862 5862 5863 5864 5868 5870 5872 5874 5872 5876 5878 5877 5879 5881 5883 5885 5888
5814 5819 5824 5829 5832 5834 5837 5840 5842 5844 5848 5850 5852 5853 5855 5857 5859 5859 5859 5858 5858 5858 5858 5858 5858 5859 5860 5861 5861 5862 5864 5866 5867 5868 5869 5870 5871 5872 5872 5871 5874 5878 5880 5882
5803 5809 5815 5820 5824 5828 5830 5833 5836 5840 5842 5845 5847 5850 5852 5855 5856 5856 5857 5856 5856 5857 5857 5857 5858 5858 5859 5859 5861 5862 5863 5864 5865 5866 5866 5866 5867 5866 5865 5865 5869 5871 5873 5876
5794 5798 5805 5808 5816 5819 5821 5827 5830 5834 5838 5841 5843 5847 5849 5850 5852 5853 5853 5854 5854 5854 5856 5857 5857 5858 5858 5858 5859 5860 5861 5862 5862 5863 5863 5863 5862 5862 5863 5863 5864 5865 5864 5867
5784 5788 5793 5798 5806 5805 5813 5819 5824 5829 5833 5835 5838 5841 5844 5846 5848 5849 5849 5850 5851 5852 5853 5855 5856 5857 5857 5858 5858 5857 5858 5858 5859 5859 5860 5860 5860 5860 5860 5859 5859 5859 5861 5862
5773 5777 5782 5786 5794 5800 5806 5812 5816 5821 5825 5830 5833 5835 5838 5841 5842 5845 5846 5846 5847 5848 5850 5852 5854 5855 5855 5855 5855 5856 5856 5857 5857 5856 5855 5855 5855 5856 5856 5857 5856 5855 5855 5855
5759 5763 5769 5776 5781 5786 5799 5804 5808 5812 5815 5823 5828 5831 5832 5834 5837 5841 5842 5842 5843 5844 5846 5846 5849 5851 5852 5852 5852 5853 5853 5854 5853 5853 5851 5851 5850 5850 5851 5851 5851 5851 5850 5849
5747 5752 5755 5763 5768 5778 5787 5785 5794 5800 5811 5816 5821 5825 5827 5830 5835 5836 5836 5837 5839 5839 5840 5842 5844 5846 5847 5848 5849 5849 5850 5850 5848 5848 5847 5846 5844 5844 5844 5844 5845 5846 5845 5845
5734 5741 5748 5756 5761 5766 5775 5784 5789 5799 5801 5807 5814 5818 5822 5825 5827 5829 5831 5832 5834 5835 5837 5838 5840 5840 5841 5843 5844 5844 5845 5844 5843 5843 5841 5839 5838 5837 5836 5837 5838 5838 5839 5840
5721 5730 5739 5746 5754 5759 5768 5775 5780 5787 5793 5798 5806 5812 5816 5820 5822 5823 5825 5828 5830 5831 5833 5834 5834 5835 5836 5836 5836 5838 5839 5839 5838 5837 5836 5835 5833 5831 5830 5830 5830 5831 5832 5832
5714 5720 5728 5736 5743 5750 5760 5764 5769 5772 5779 5789 5797 5805 5810 5814 5816 5818 5820 5823 5826 5828 5829 5829 5829 5830 5830 5830 5831 5832 5832 5832 5831 5830 5829 5828 5825 5823 5823 5822 5822 5822 5823 5824
5703 5710 5717 5725 5733 5741 5749 5755 5760 5768 5774 5781 5789 5794 5802 5808 5810 5812 5814 5817 5821 5822 5824 5824 5825 5825 5825 5826 5827 5827 5827 5826 5825 5823 5822 5821 5818 5816 5815 5815 5815 5815 5816 5816
5695 5703 5708 5715 5722 5730 5739 5747 5751 5755 5762 5771 5781 5788 5794 5801 5804 5805 5806 5810 5813 5817 5819 5820 5821 5821 5821 5822 5821 5821 5821 5820 5819 5818 5816 5814 5812 5810 5809 5808 5807 5807 5808 5808
Wind_Speed
8 7 8 9 6 10 10 10 9 8 10 7 7 7 4 5 12 12 11 9 9 7 6 7 9 8 8 7 7 8 7 8 7 9 13 13 11 13 15 12 14 17 20 23
11 11 11 9 8 9 8 8 11 12 10 7 9 10 9 5 5 7 10 10 9 9 10 9 9 11 11 10 9 10 9 8 8 8 9 12 13 13 12 14 15 18 18 22
15 13 10 8 7 8 7 12 13 13 12 8 5 4 7 9 6 5 5 7 9 13 12 12 11 11 12 13 11 12 14 11 8 7 9 8 11 13 15 15 17 18 19 23
16 13 10 9 9 8 12 15 14 16 14 10 9 8 9 7 7 10 9 10 11 15 16 12 13 10 13 13 14 14 14 12 11 8 7 9 10 13 14 13 15 15 17 22
17 14 12 7 11 12 18 16 15 16 16 13 18 11 18 13 9 8 10 15 15 15 18 16 14 17 14 12 14 15 14 13 12 11 8 8 9 12 12 14 14 14 17 21
21 15 13 11 16 16 18 16 16 17 16 13 14 12 13 14 12 10 10 15 18 18 19 17 14 17 13 13 15 14 16 14 12 10 8 9 11 12 10 13 14 14 16 19
22 16 13 17 18 14 16 16 17 17 9 7 6 6 11 12 14 14 9 12 17 20 19 20 16 16 22 16 19 15 14 14 12 10 10 8 7 10 13 14 14 13 14 18
21 17 16 14 12 12 15 19 24 17 10 8 2 1 6 13 11 12 8 9 12 19 21 19 20 18 18 22 21 17 16 15 12 9 9 8 7 8 11 15 16 14 14 17
21 16 16 18 16 16 16 18 21 19 14 8 4 1 4 10 9 10 10 7 7 8 20 21 19 16 18 21 23 20 18 16 14 12 9 9 7 7 6 12 16 17 16 19
20 18 21 22 21 20 19 18 17 18 14 11 6 2 2 6 8 9 14 10 8 11 13 20 18 19 17 21 21 19 19 17 15 14 12 11 10 7 6 10 16 19 17 18
20 22 25 24 21 14 15 17 18 19 16 12 11 6 6 1 6 10 12 13 12 12 14 17 18 16 17 20 20 21 21 19 17 17 16 13 13 12 9 8 12 18 18 19
21 26 30 26 22 20 22 18 14 20 17 13 14 6 6 4 2 8 7 8 6 1 6 10 10 10 16 19 14 18 25 20 21 17 15 15 13 14 14 16 15 18 22 22
27 30 29 29 29 26 25 22 19 15 15 14 15 13 6 2 2 8 6 2 1 3 5 8 8 6 9 12 10 7 15 19 18 17 18 19 18 16 19 19 18 19 20 23
34 35 35 36 31 27 26 23 22 22 23 19 17 14 11 9 7 5 2 1 2 3 4 6 7 8 9 8 8 6 14 16 13 14 17 16 24 20 21 25 24 23 22 22
42 39 38 31 31 32 30 28 24 26 26 22 16 13 10 12 10 6 3 5 3 3 2 4 4 6 6 5 5 7 9 12 18 15 15 17 18 20 27 25 29 26 24 24
45 46 40 36 32 30 32 30 25 23 23 21 21 19 15 8 8 10 8 7 7 8 2 4 5 5 4 4 4 5 6 8 11 13 14 13 16 17 15 21 23 24 27 30
45 44 41 43 38 34 35 29 31 29 26 17 18 11 14 11 7 4 7 12 12 13 9 7 7 6 6 6 6 7 8 9 11 12 13 13 13 15 15 18 23 25 29 33
50 47 45 44 40 45 37 32 28 24 25 23 22 18 13 15 14 8 9 11 15 18 18 15 12 12 10 9 9 9 9 11 13 15 17 17 17 17 18 18 20 21 20 28
57 52 49 47 41 38 38 38 31 29 26 22 22 23 22 19 19 10 12 12 12 15 15 17 17 15 15 13 12 12 10 10 12 15 17 19 20 21 21 21 20 21 21 22
44 62 55 50 47 52 33 40 34 26 30 26 21 18 18 18 14 10 14 19 17 17 15 17 23 18 18 19 17 16 14 11 12 14 17 19 21 24 25 24 24 22 20 22
44 46 53 59 56 53 43 42 37 37 29 25 23 20 17 15 14 16 18 23 21 16 16 18 20 19 19 21 19 19 18 15 15 16 17 19 22 24 25 26 26 25 23 22
45 46 43 37 46 46 45 48 45 32 26 29 25 21 19 19 21 17 19 22 19 13 14 16 17 19 20 20 21 21 19 18 16 17 19 20 22 25 25 26 27 26 25 24
44 39 43 45 39 38 29 31 33 33 38 31 29 27 24 26 24 23 21 23 20 16 12 13 18 20 19 20 19 19 18 17 18 19 20 21 22 24 26 27 26 26 25 26
45 44 41 40 41 35 27 31 31 44 42 35 31 31 30 27 24 25 27 26 23 21 21 19 14 14 16 17 17 17 17 19 20 21 21 21 22 23 25 27 28 28 27 26
47 46 48 40 39 32 30 32 35 44 39 38 35 33 32 29 27 24 28 26 17 13 17 14 13 13 13 13 14 15 16 17 19 19 20 20 21 23 26 27 28 29 29 29
29 38 49 42 41 37 32 27 28 41 52 48 39 33 30 24 27 28 29 27 22 20 18 15 16 15 14 16 15 15 16 16 16 18 18 19 19 20 22 25 27 30 30 30
Wind_Direction
327 288 272 277 252 232 218 230 255 245 234 216 199 155 111 145 188 174 173 180 179 170 184 192 162 163 168 183 175 176 170 158 153 148 149 150 158 166 170 161 157 161 165 161
310 302 297 272 251 240 209 213 227 219 213 204 205 187 155 144 161 192 176 197 209 196 200 210 188 170 171 183 186 168 167 154 155 159 157 157 160 165 169 170 170 170 168 168
296 306 301 272 261 240 204 219 224 224 213 198 204 207 201 185 182 199 221 211 212 198 209 221 220 184 183 189 204 182 169 168 161 162 181 186 185 178 176 176 178 181 175 173
286 294 290 269 245 238 210 217 221 229 224 240 258 244 248 218 208 221 234 222 223 224 217 226 238 213 187 180 197 198 189 183 168 174 187 188 202 205 190 189 195 192 187 179
268 280 281 259 236 222 222 229 229 233 244 267 268 250 256 254 244 244 238 238 232 236 216 221 233 222 201 191 189 192 197 197 179 170 180 196 190 204 207 201 202 201 199 190
268 266 267 239 233 225 236 242 254 260 257 253 264 250 240 242 242 249 254 237 231 231 221 231 238 213 204 208 210 200 188 194 191 183 194 184 192 198 206 221 212 206 207 198
260 259 241 225 237 224 237 250 261 272 256 234 259 245 230 234 237 244 258 263 251 239 238 234 232 222 231 229 220 214 211 204 206 189 184 198 188 187 203 222 225 212 213 196
257 250 244 235 231 235 230 242 253 263 241 223 213 179 257 237 245 254 269 282 258 248 242 235 236 228 238 234 226 219 218 216 223 216 198 214 209 213 206 220 221 218 217 204
249 234 229 219 203 220 239 252 253 256 235 226 192 285 251 243 255 276 283 291 286 298 236 234 237 230 233 240 218 218 223 225 226 230 222 233 228 214 226 214 219 222 219 212
239 226 214 204 207 218 234 243 254 234 236 233 194 143 113 195 236 271 295 306 299 277 250 230 230 240 245 220 211 218 224 227 231 233 231 226 227 219 234 221 215 220 221 220
247 231 212 205 219 224 240 249 256 234 234 241 216 230 110 48 264 286 291 317 315 297 234 224 226 240 240 224 223 222 220 223 227 233 232 225 230 223 216 229 226 227 226 226
238 220 211 208 209 215 226 233 232 237 243 244 246 207 159 49 253 313 320 320 321 91 177 190 217 234 233 229 215 226 230 232 219 226 234 236 232 242 241 240 226 227 231 231
218 215 210 204 219 222 228 235 225 210 222 230 246 211 275 245 334 311 341 342 36 143 189 201 207 208 213 223 225 209 206 199 217 229 240 245 239 239 245 246 244 243 238 238
219 218 220 225 235 234 223 231 227 226 231 241 243 233 235 237 251 298 66 150 140 120 119 132 170 197 207 211 215 201 218 196 217 229 240 257 231 247 253 261 247 244 247 244
222 221 225 230 227 220 224 229 236 236 230 235 248 236 231 249 236 265 249 238 203 120 168 168 157 163 152 158 190 207 209 220 226 229 244 247 242 244 261 243 237 245 247 250
234 223 224 224 218 223 230 225 226 233 235 245 250 251 253 264 242 255 257 241 253 246 300 205 200 217 210 189 198 200 202 215 227 228 236 243 243 250 262 226 228 247 248 247
236 239 233 232 218 219 223 228 232 225 235 242 251 261 263 253 304 276 257 248 252 251 264 246 232 233 239 242 235 240 243 246 254 255 250 249 257 258 253 242 242 253 253 240
229 235 238 240 232 220 221 220 227 238 244 242 248 248 249 245 274 285 281 259 254 256 263 247 241 246 252 260 256 246 249 257 261 264 266 264 259 255 256 256 254 254 255 247
221 224 232 234 239 230 230 218 217 231 239 249 255 258 251 259 271 274 262 265 276 268 261 239 235 243 248 254 259 252 254 264 275 276 271 269 265 263 260 257 258 256 258 264
234 220 225 229 233 240 232 224 216 215 225 231 244 246 245 247 256 251 256 261 273 269 250 249 237 242 245 252 258 257 260 271 274 274 273 269 267 263 260 261 261 260 261 265
229 234 231 227 233 232 235 222 201 209 219 224 240 228 232 230 237 246 247 248 263 273 246 244 242 243 244 241 247 250 254 260 273 281 278 272 266 263 260 256 256 253 256 260
222 228 231 233 233 241 241 237 240 233 205 220 213 228 224 204 222 238 240 238 251 265 258 247 245 242 243 241 241 243 251 260 271 281 284 281 276 268 261 257 254 255 254 255
203 223 227 228 235 239 240 240 241 250 205 207 215 220 217 222 239 241 242 236 243 255 257 253 243 240 241 241 246 255 261 267 275 278 280 278 274 271 265 262 260 257 256 257
226 232 222 226 228 229 217 225 231 203 187 197 198 208 216 221 223 236 237 238 249 261 263 272 260 246 244 249 255 262 273 279 281 282 283 283 280 270 264 260 260 263 263 263
223 214 216 215 223 221 215 222 231 216 195 199 206 199 215 214 212 226 233 241 245 261 263 260 262 255 256 260 266 270 273 277 279 284 286 288 286 278 267 262 260 259 260 262
228 221 211 210 218 218 213 212 220 220 209 210 206 208 204 209 221 227 236 241 242 258 253 260 253 251 261 254 252 263 272 276 282 285 287 285 285 281 276 268 263 259 258 258